Location: Newark
(13.8117°N, 3.6025°W)
Time: 09:44:52
(UTC+00:00)

Vanguard 2 - Pass Details

Date: 02 September 2019
Orbit: 554 x 2937 km, 32.9° (Epoch: 17 September)

Event Time Altitude Azimuth Distance (km) Brightness Sun altitude
Rises 08:16:49 0° 262° (W) 3,297 10.3 31.6°
Reaches altitude 10° 08:19:57 10° 276° (W) 2,116 9.4 32.3°
Maximum altitude 08:23:44 24° 331° (NNW) 1,215 8.5 33.2°
Drops below altitude 10° 08:27:02 10° 28° (NNE) 1,821 9.9 34.0°
Sets 08:29:31 0° 43° (NE) 2,727 10.9 34.6°
